Location: Brookfield Center
(41.2406°N, 80.5579°W)
Time: 10:10:05
(UTC+00:00)

Cosmos 2344 - Pass Details

Date: 18 January 2020
Orbit: 1255 x 2987 km, 63.3° (Epoch: 16 February)

Event Time Altitude Azimuth Distance (km) Brightness Sun altitude
Exits shadow 10:15:26 19° 207° (SSW) 2,652 5.0 -27.7°
Maximum altitude 10:21:12 81° 123° (ESE) 1,277 3.5 -26.6°
Drops below altitude 10° 10:29:07 10° 37° (NE) 3,438 6.2 -25.1°
Sets 10:32:09 0° 36° (NE) 4,552 6.9 -24.5°
